Temperature
10 10 10 10 11 11 11 11 11 11 11 11 11 11 11 11 11 11 11 11 11 11 11 11 11 11 11 11 11 11 11 10 11 11 10 10 10 10 10 10 10 10 10
10 10 10 10 10 10 10 10 10 10 10 10 10 11 11 11 10 10 10 11 11 11 10 10 10 10 10 11 10 10 10 10 10 10 10 10 10 10 10 10 10 10 9
9 9 9 10 10 10 10 10 10 10 10 10 10 10 10 10 10 10 10 10 10 10 10 10 10 10 10 10 10 10 10 10 10 10 10 10 10 10 10 10 10 9 9
9 9 9 9 9 9 9 9 9 9 9 9 9 9 9 9 10 10 10 10 10 10 10 10 10 10 10 10 10 10 10 10 10 9 9 9 9 10 10 9 9 9 9
8 8 8 8 8 8 8 8 9 9 9 9 9 9 9 9 9 9 9 9 9 9 9 10 10 10 10 9 9 9 9 9 9 9 9 9 9 9 9 9 9 9 9
8 7 8 8 8 8 8 8 8 8 8 8 8 8 8 8 9 9 9 9 9 9 9 9 9 9 9 9 9 9 9 9 9 9 9 9 9 9 9 9 9 9 9
7 7 7 7 7 7 7 7 7 7 7 7 7 7 8 8 8 8 8 8 8 9 9 9 9 9 9 9 9 8 8 8 8 8 8 8 9 9 8 9 9 9 9
6 6 6 7 7 7 7 7 7 7 7 6 6 6 6 7 8 8 8 8 8 8 8 8 8 8 9 8 8 8 8 8 8 8 8 8 8 8 8 8 8 8 8
6 6 6 6 6 6 6 6 6 6 6 6 6 5 5 5 6 7 7 7 7 7 8 8 8 8 8 8 8 8 8 8 8 8 8 8 8 8 8 8 8 8 8
6 6 6 6 6 6 5 5 5 6 6 6 5 5 5 5 5 5 6 6 7 7 7 7 7 7 7 8 8 8 8 8 8 7 7 7 8 8 8 8 8 8 8
5 5 5 5 5 5 5 5 5 5 5 5 5 5 5 5 5 4 4 5 6 6 6 6 7 7 7 7 7 7 7 7 7 7 7 7 7 7 7 7 7 7 8
5 5 5 5 5 5 5 5 5 5 5 5 5 5 5 4 4 4 4 4 4 5 5 6 6 6 6 7 7 7 7 7 7 7 7 7 7 7 7 7 7 7 7
4 4 4 4 4 4 4 4 4 4 4 5 5 5 4 4 4 4 4 4 4 4 4 5 5 6 6 6 6 6 6 6 6 6 6 6 7 7 7 7 7 7 7
3 4 4 4 4 4 4 4 4 4 4 4 4 4 4 4 4 4 4 4 4 4 4 4 5 5 5 5 5 5 5 6 6 6 6 6 6 6 6 6 6 6 6
3 3 3 3 3 3 3 3 3 3 3 3 4 4 4 4 4 4 3 3 3 3 3 4 4 4 4 5 5 5 5 5 5 5 5 5 5 6 6 6 6 6 6
2 3 3 3 3 3 3 3 3 3 3 3 3 3 3 3 3 3 3 3 3 3 3 3 3 3 4 4 4 4 4 5 5 5 5 5 5 5 5 5 5 5 5
2 2 2 2 2 2 2 2 2 2 2 2 2 2 2 3 3 3 2 3 3 3 3 3 3 3 3 3 4 4 4 4 4 4 4 5 5 5 5 5 5 5 5
2 2 2 2 2 2 2 1 1 1 1 1 2 2 2 2 2 2 2 2 2 2 2 2 2 2 3 3 3 3 4 4 4 4 4 4 4 5 5 5 4 4 4
1 1 1 1 1 1 1 1 1 1 1 1 1 1 1 2 2 2 2 2 2 2 2 2 2 2 2 2 2 3 3 3 3 3 4 4 4 4 4 4 4 4 4
1 1 1 1 1 1 0 0 0 1 1 1 1 1 1 1 1 1 1 1 1 1 1 1 1 2 2 2 2 2 3 3 3 3 3 3 3 4 4 4 4 4 4
1 1 0 0 0 0 0 0 -0 0 0 0 0 0 0 0 0 0 1 1 1 1 1 1 1 1 1 1 1 1 2 2 3 3 3 3 3 3 3 3 3 3 3
0 0 -0 -0 -0 -0 -0 -0 -1 -1 -0 -0 -0 -0 0 -0 -0 0 0 0 0 1 1 1 1 1 1 1 1 1 1 1 2 2 2 2 2 2 2 2 2 3 3
-0 -0 -0 -0 -0 -1 -1 -1 -1 -1 -1 -1 -1 -1 -0 -0 -0 -0 -0 -0 0 -0 -0 0 0 0 0 0 0 0 0 0 1 1 1 2 2 2 2 2 2 2 2
-1 -1 -1 -1 -1 -1 -1 -1 -1 -1 -1 -1 -1 -1 -1 -1 -1 -1 -0 -0 -0 -0 -0 -0 -0 -0 -0 -0 -0 -0 -0 -0 0 0 1 1 1 1 1 1 1 1 1
-1 -1 -1 -2 -2 -2 -2 -2 -2 -2 -2 -2 -2 -1 -1 -1 -1 -1 -1 -1 -1 -1 -1 -1 -1 -1 -1 -1 -1 -1 -0 -0 -0 -0 0 0 1 1 1 1 1 1 1
-2 -2 -2 -2 -2 -2 -2 -2 -2 -2 -2 -2 -2 -2 -2 -2 -2 -2 -2 -2 -1 -1 -1 -1 -1 -1 -1 -1 -1 -1 -1 -1 -1 -1 -0 -0 -0 -0 -0 0 0 1 1
Wind_Speed
1 1 1 0 1 0 1 1 1 2 1 2 2 2 2 3 4 4 5 6 7 9 9 9 10 10 10 9 9 8 8 8 8 8 7 6 6 6 6 6 6 6 6
1 1 1 1 1 1 2 2 2 2 2 2 3 3 3 4 4 5 5 6 7 9 11 11 10 10 10 10 10 10 10 9 8 8 8 7 7 7 7 7 7 7 7
2 1 2 2 2 2 2 1 1 1 2 2 3 3 3 3 4 5 5 5 6 7 10 11 11 11 11 11 11 11 10 10 10 9 9 9 8 8 8 8 8 8 8
2 1 2 2 2 2 1 1 1 1 2 2 3 3 3 3 4 5 5 5 5 6 8 11 12 12 12 12 11 11 10 10 11 10 10 10 10 9 9 9 8 9 9
2 2 2 2 2 1 2 2 1 1 2 2 3 3 4 4 4 5 5 5 6 6 7 9 11 11 12 12 12 11 11 11 12 11 11 11 10 10 10 10 10 9 10
2 2 2 2 2 2 2 2 2 1 2 2 3 4 4 5 4 5 5 5 5 6 7 7 7 9 11 11 12 12 12 12 12 12 12 12 11 11 11 11 11 10 11
3 3 3 2 2 2 3 3 2 2 1 0 2 3 4 4 5 4 4 4 5 5 6 6 6 7 7 11 12 12 12 13 13 13 13 12 12 12 12 12 12 11 11
4 4 3 3 3 2 3 3 2 2 1 1 1 1 3 4 2 3 3 4 5 4 5 6 6 7 7 7 9 11 13 14 14 14 13 13 13 12 12 13 12 13 12
4 4 4 4 3 4 4 4 3 3 3 2 2 2 2 3 3 3 4 4 4 4 4 5 6 7 8 7 8 10 12 13 14 14 14 14 13 13 12 13 13 13 13
4 4 4 4 4 4 4 4 4 3 4 3 2 2 3 3 2 3 3 3 4 4 4 4 5 7 7 7 8 10 11 13 14 14 14 14 14 13 13 13 12 12 12
3 3 3 3 3 4 4 4 4 4 4 4 3 2 3 3 4 4 5 5 4 4 4 5 5 5 6 7 8 9 10 11 13 13 14 14 14 14 14 14 12 12 11
2 3 3 3 3 3 4 4 4 4 4 4 4 4 4 3 3 4 5 6 6 5 5 5 5 5 5 6 8 9 10 10 11 12 13 13 14 14 14 14 13 12 12
3 3 3 3 3 3 4 3 3 4 4 4 4 5 5 5 4 4 5 5 6 6 5 4 4 4 5 5 6 9 9 10 10 11 12 12 13 12 13 13 13 12 12
4 3 4 3 3 3 3 3 3 4 3 4 5 4 4 4 4 4 4 4 6 6 5 5 4 4 4 5 7 8 9 9 10 10 11 11 11 11 11 11 11 11 11
3 3 3 4 3 3 3 3 3 3 3 4 4 4 4 3 4 4 4 4 5 7 8 5 4 3 4 5 7 7 8 9 10 10 10 11 11 10 10 10 11 10 10
3 3 3 3 3 3 3 3 3 3 3 4 3 3 3 3 3 3 4 4 4 6 7 5 4 4 4 5 8 7 8 9 9 10 10 11 11 10 9 9 9 9 8
2 2 3 3 3 3 3 3 3 3 3 3 3 3 4 3 3 3 3 4 4 4 7 7 4 4 4 5 6 6 6 6 7 9 10 10 10 8 8 8 8 7 6
2 2 3 3 3 3 3 3 4 3 4 4 4 4 4 3 4 3 3 4 5 5 6 7 5 4 4 5 5 5 5 5 6 8 9 9 9 7 7 7 6 6 5
2 2 2 3 3 3 3 3 4 4 4 4 4 4 4 4 4 3 4 4 4 5 4 5 6 4 4 3 4 4 4 4 5 6 7 7 8 7 6 6 5 5 5
2 2 2 3 3 3 3 3 3 3 3 4 4 3 3 4 4 4 4 4 4 4 4 4 5 4 4 3 3 3 4 3 4 3 4 5 5 6 6 5 4 4 4
2 1 2 2 2 2 3 2 2 3 3 3 3 3 4 4 5 4 4 3 3 3 3 4 4 4 4 3 3 3 4 4 3 1 2 3 3 2 3 3 3 3 3
2 1 1 2 2 2 4 4 3 2 2 3 3 3 3 4 4 5 5 5 3 3 3 4 4 5 5 5 4 3 3 3 3 1 1 3 1 2 1 1 1 2 2
2 2 1 1 2 3 4 4 5 3 2 3 3 3 3 3 4 2 4 4 4 4 4 4 5 6 5 4 4 4 3 3 3 2 1 2 1 1 1 2 1 1 1
2 2 2 2 2 3 4 4 5 3 2 2 3 3 3 3 3 3 2 3 3 3 4 3 4 5 5 3 3 3 3 2 2 2 0 1 1 1 2 2 1 0 0
3 2 2 2 2 3 4 3 4 1 2 2 3 3 2 2 4 4 3 3 3 4 4 4 4 4 5 4 2 1 1 1 2 2 1 0 0 1 1 1 1 1 1
3 3 3 2 2 3 4 3 4 1 1 2 3 3 4 4 3 4 2 2 3 4 4 4 4 4 3 3 3 2 2 2 1 1 1 0 0 1 1 1 1 1 2
Wind_Direction
257 232 252 293 309 229 214 228 228 234 252 258 243 229 234 244 245 246 253 256 262 257 254 253 254 254 254 255 254 255 253 246 239 231 234 241 252 255 261 270 263 266 267
256 229 230 247 264 255 235 231 232 227 241 253 252 242 244 251 253 251 250 254 258 260 256 255 255 257 256 255 256 255 254 248 248 239 237 242 248 252 254 263 265 265 268
251 233 218 227 255 261 255 247 244 227 252 264 261 255 247 249 253 258 258 253 252 260 259 256 257 258 258 256 254 255 257 250 249 248 243 243 245 247 252 255 265 264 265
250 236 222 231 258 246 229 221 228 246 268 272 272 268 259 251 256 256 258 254 249 254 261 260 258 258 257 256 254 254 256 256 250 251 247 245 245 245 251 251 258 263 261
262 244 236 241 242 230 214 226 226 215 252 276 280 277 265 250 249 253 252 251 249 249 254 261 256 257 257 256 255 255 256 258 253 252 249 247 247 246 248 252 254 261 261
281 256 245 237 223 214 225 219 230 238 231 256 293 293 282 266 250 243 244 248 247 245 248 256 256 254 255 256 255 254 255 256 255 251 252 249 247 249 248 252 253 261 261
274 245 241 222 217 219 227 217 222 227 243 257 320 312 300 269 252 247 238 240 247 248 248 252 255 252 254 255 255 255 257 257 259 252 254 250 250 250 251 253 252 256 260
268 250 226 226 221 225 231 218 210 215 247 191 226 299 306 305 273 253 244 243 249 250 255 255 252 250 248 251 254 256 260 260 258 255 254 252 250 252 253 253 254 252 258
274 250 236 226 223 213 220 224 215 214 225 245 216 210 239 261 304 276 248 249 253 259 257 259 253 254 252 249 250 254 260 260 260 259 258 254 251 253 257 255 254 257 255
283 260 246 236 226 223 220 226 227 226 208 227 240 242 244 243 255 295 289 265 262 260 262 270 266 255 253 254 251 252 258 258 258 260 262 254 253 255 256 258 257 257 259
286 278 254 244 237 236 230 230 232 231 227 224 230 246 256 264 244 248 278 290 285 267 263 264 263 264 260 259 255 253 258 260 258 259 262 254 253 255 257 257 259 259 261
272 279 276 255 243 242 237 234 229 228 240 237 236 237 236 234 232 239 258 277 284 285 275 268 265 265 267 262 259 262 261 261 261 259 259 259 255 255 257 259 257 263 259
279 276 283 270 264 253 245 240 239 237 238 239 238 243 242 247 240 242 253 272 282 287 278 269 264 265 270 267 265 269 261 265 264 263 261 263 258 255 255 254 255 260 259
262 259 265 266 269 265 259 247 246 246 245 248 251 250 248 254 246 241 241 257 279 284 276 273 278 266 275 273 272 271 263 266 266 268 266 267 265 260 259 255 253 257 260
264 248 257 264 271 265 255 246 248 255 249 253 252 254 253 259 254 253 249 246 251 274 277 272 273 281 286 277 275 272 267 270 270 268 270 270 269 260 257 255 249 253 261
255 248 256 266 270 264 255 249 260 255 260 268 263 253 255 251 251 258 255 259 252 259 272 269 268 276 283 287 283 276 272 276 276 275 274 271 267 259 255 257 248 249 251
257 253 254 258 262 261 256 253 262 267 266 274 274 260 264 258 248 254 258 259 260 257 270 282 272 271 273 281 291 285 279 275 274 275 275 273 264 260 256 259 250 246 243
259 255 257 258 260 261 253 250 257 259 257 262 266 265 272 275 261 251 253 257 261 259 262 280 283 275 271 273 278 282 285 280 275 275 273 272 264 264 258 259 245 238 237
270 264 257 263 265 264 256 251 250 253 254 261 265 262 272 273 275 268 258 257 262 264 263 267 279 278 274 281 285 285 283 281 284 284 276 273 267 269 261 249 242 244 241
279 266 267 266 262 259 254 253 262 271 273 277 276 271 270 266 265 264 265 261 263 264 263 262 274 283 281 274 271 281 296 292 289 299 290 291 289 279 268 250 250 248 239
297 286 285 280 273 263 257 258 267 280 285 293 289 279 275 278 277 271 271 263 260 261 262 267 274 282 284 281 280 278 282 297 297 282 292 301 300 280 272 258 256 251 236
308 296 283 288 295 298 308 316 308 282 285 285 285 293 294 290 288 291 289 284 278 270 271 278 282 276 283 283 289 285 282 290 291 311 302 301 305 272 282 279 256 222 219
319 311 299 289 287 292 311 320 324 308 288 283 287 298 305 305 310 298 302 310 313 304 282 273 280 281 279 275 271 273 276 278 280 297 326 289 292 284 323 324 283 249 256
332 326 315 303 299 299 321 330 335 330 320 304 294 285 288 300 303 307 310 315 311 308 300 292 286 289 288 275 251 253 258 284 297 309 248 260 296 301 313 314 301 118 25
336 329 315 310 301 298 320 339 351 330 322 316 310 305 306 296 308 320 319 316 319 322 330 321 313 313 309 304 292 278 271 268 292 294 265 224 308 337 308 287 324 358 356
334 332 333 333 317 303 319 348 352 315 322 321 312 307 314 320 321 327 323 310 309 314 325 333 337 339 340 333 313 276 254 255 267 281 296 83 89 24 333 311 323 349 355
Height
1492 1492 1493 1494 1494 1495 1496 1497 1497 1498 1499 1499 1499 1500 1500 1500 1501 1501 1501 1502 1503 1503 1504 1505 1505 1506 1506 1506 1507 1507 1508 1508 1508 1508 1508 1508 1509 1508 1508 1508 1508 1507 1507
1489 1489 1490 1490 1491 1492 1493 1493 1494 1494 1495 1495 1496 1496 1496 1496 1497 1497 1497 1498 1498 1499 1500 1500 1501 1502 1502 1502 1503 1503 1504 1504 1504 1504 1505 1505 1505 1505 1504 1504 1504 1504 1503
1486 1486 1486 1487 1488 1488 1489 1489 1490 1491 1491 1491 1492 1492 1492 1492 1492 1493 1493 1494 1494 1495 1495 1496 1496 1497 1497 1498 1498 1499 1499 1500 1500 1500 1501 1501 1501 1501 1501 1500 1500 1500 1500
1483 1483 1483 1483 1484 1484 1485 1485 1486 1486 1486 1487 1487 1487 1487 1488 1488 1488 1489 1489 1490 1490 1490 1491 1491 1492 1492 1493 1494 1494 1494 1495 1496 1496 1496 1496 1497 1497 1497 1496 1496 1496 1496
1479 1479 1479 1480 1480 1480 1481 1481 1481 1482 1482 1483 1483 1483 1483 1483 1483 1484 1484 1484 1485 1485 1486 1486 1486 1487 1487 1488 1488 1489 1489 1490 1491 1491 1491 1491 1492 1492 1492 1492 1492 1492 1492
1475 1475 1475 1476 1476 1476 1476 1477 1477 1478 1478 1479 1478 1478 1478 1478 1478 1478 1479 1479 1480 1480 1481 1481 1481 1481 1482 1482 1483 1484 1484 1485 1485 1486 1486 1487 1487 1487 1487 1488 1488 1488 1487
1471 1471 1471 1471 1471 1471 1472 1472 1473 1473 1474 1474 1474 1473 1473 1474 1473 1473 1474 1474 1475 1475 1475 1476 1476 1476 1476 1476 1477 1478 1479 1479 1479 1480 1481 1481 1481 1482 1482 1483 1483 1483 1483
1466 1467 1466 1467 1467 1467 1468 1468 1469 1469 1470 1471 1471 1470 1469 1469 1467 1468 1468 1469 1469 1470 1470 1470 1470 1470 1470 1471 1471 1472 1472 1473 1473 1474 1475 1475 1476 1477 1477 1477 1477 1478 1478
1462 1462 1462 1462 1463 1463 1463 1463 1464 1464 1465 1466 1468 1468 1467 1464 1463 1462 1462 1463 1464 1464 1465 1465 1465 1465 1465 1465 1465 1466 1466 1466 1467 1468 1469 1469 1470 1471 1471 1472 1472 1473 1473
1458 1458 1458 1458 1458 1458 1458 1459 1460 1460 1461 1461 1462 1463 1464 1462 1462 1457 1456 1457 1458 1459 1459 1459 1459 1459 1459 1459 1459 1459 1460 1460 1461 1461 1462 1463 1464 1465 1466 1466 1467 1467 1467
1453 1454 1454 1454 1454 1454 1454 1455 1455 1455 1456 1456 1457 1457 1458 1458 1457 1456 1453 1451 1452 1453 1454 1454 1454 1454 1454 1453 1453 1453 1454 1454 1455 1456 1456 1457 1458 1459 1460 1461 1461 1461 1462
1449 1449 1449 1449 1449 1449 1449 1449 1450 1450 1451 1452 1452 1452 1453 1453 1452 1452 1450 1448 1446 1447 1448 1448 1448 1448 1448 1448 1447 1447 1447 1448 1448 1449 1450 1451 1452 1453 1454 1454 1455 1455 1456
1444 1444 1445 1445 1445 1445 1445 1445 1445 1445 1446 1446 1447 1447 1447 1448 1448 1448 1447 1444 1443 1442 1441 1441 1443 1443 1443 1442 1442 1441 1441 1442 1442 1443 1444 1445 1446 1447 1447 1448 1449 1450 1450
1439 1440 1440 1440 1440 1440 1441 1441 1441 1440 1441 1441 1441 1442 1442 1442 1443 1443 1442 1442 1439 1437 1436 1436 1437 1437 1437 1437 1436 1436 1436 1436 1437 1438 1438 1439 1439 1440 1441 1442 1443 1443 1444
1435 1435 1436 1436 1436 1436 1436 1436 1435 1435 1436 1435 1436 1436 1437 1437 1438 1438 1438 1439 1438 1434 1431 1431 1432 1432 1432 1432 1431 1431 1431 1431 1431 1432 1432 1433 1433 1434 1435 1436 1437 1438 1438
1431 1431 1431 1431 1431 1432 1431 1431 1431 1431 1431 1430 1431 1431 1432 1432 1433 1433 1433 1433 1433 1431 1428 1426 1427 1427 1427 1427 1427 1426 1426 1426 1427 1427 1427 1428 1428 1428 1429 1431 1432 1432 1433
1427 1427 1427 1427 1427 1427 1427 1427 1426 1426 1426 1426 1426 1426 1427 1427 1427 1427 1427 1428 1427 1427 1424 1422 1422 1422 1422 1422 1422 1422 1421 1421 1421 1422 1422 1422 1422 1422 1424 1425 1426 1426 1427
1424 1424 1424 1423 1423 1423 1423 1422 1422 1422 1422 1422 1422 1422 1422 1422 1422 1422 1422 1422 1422 1421 1421 1417 1417 1417 1417 1417 1417 1417 1416 1416 1416 1416 1416 1416 1417 1417 1418 1420 1420 1421 1422
1420 1420 1420 1419 1419 1419 1419 1419 1419 1418 1418 1418 1418 1418 1417 1417 1417 1417 1417 1417 1417 1416 1416 1414 1413 1412 1413 1413 1413 1412 1412 1411 1411 1411 1411 1412 1412 1413 1414 1415 1415 1416 1417
1416 1416 1416 1416 1415 1415 1415 1415 1415 1415 1415 1415 1415 1414 1414 1414 1414 1413 1413 1412 1412 1411 1411 1410 1409 1409 1408 1409 1409 1408 1407 1407 1407 1407 1407 1407 1408 1408 1409 1410 1411 1412 1412
1413 1413 1413 1412 1412 1412 1412 1412 1412 1412 1411 1411 1411 1411 1411 1411 1410 1410 1410 1409 1408 1407 1407 1406 1406 1405 1405 1405 1405 1404 1403 1403 1403 1403 1403 1403 1403 1404 1405 1406 1407 1408 1409
1411 1410 1410 1409 1409 1409 1409 1409 1409 1409 1409 1408 1408 1408 1407 1407 1407 1407 1406 1406 1405 1404 1404 1403 1402 1402 1401 1402 1401 1401 1400 1399 1399 1400 1400 1400 1400 1400 1401 1402 1403 1404 1405
1408 1408 1407 1407 1406 1406 1406 1406 1407 1407 1406 1406 1406 1405 1405 1405 1404 1403 1402 1402 1402 1402 1402 1401 1399 1399 1398 1398 1398 1397 1397 1397 1396 1397 1397 1396 1397 1397 1398 1399 1400 1401 1402
1406 1405 1404 1404 1403 1403 1404 1404 1404 1404 1403 1403 1403 1403 1402 1402 1401 1401 1400 1399 1398 1398 1398 1397 1396 1396 1395 1395 1395 1395 1394 1394 1394 1394 1395 1394 1394 1395 1396 1397 1398 1398 1399
1405 1404 1403 1402 1401 1401 1402 1402 1402 1401 1401 1400 1400 1400 1399 1399 1398 1398 1397 1396 1395 1395 1395 1394 1393 1392 1392 1392 1392 1393 1392 1392 1391 1392 1393 1392 1392 1393 1394 1394 1395 1396 1397
1403 1402 1401 1401 1400 1399 1399 1399 1400 1399 1398 1398 1397 1397 1397 1396 1396 1395 1395 1394 1393 1392 1392 1391 1390 1390 1389 1390 1390 1391 1390 1390 1390 1390 1390 1391 1391 1391 1391 1392 1393 1394 1394